Weather History for Worland, WY

Change the Weather History Date:

Saturday, May 18, 2013

  Actual Average Record
Temperature  
Mean Temperature 55 °F 56 °F  
Max Temperature 63 °F 71 °F 93 °F (1992)
Min Temperature 47 °F 42 °F 32 °F (1965)
Degree Days  
Heating Degree Days 10 9  
Month to date heating degree days 154 213  
Since 1 July heating degree days 7333 7680  
Cooling Degree Days 0 0  
Month to date cooling degree days 16 0  
Year to date cooling degree days 16 1  
Growing Degree Days 4 (Base 50)    
Moisture  
Dew Point 47 °F    
Average Humidity 76    
Maximum Humidity 100    
Minimum Humidity 52    
Precipitation  
Precipitation 0.01 in 0.05 in 1.21 in (1978)
Month to date precipitation 0.57 0.80  
Year to date precipitation 2.14 2.54  
Sea Level Pressure  
Sea Level Pressure 29.84 in    
Wind  
Wind Speed 9 mph (NNW)    
Max Wind Speed 22 mph    
Max Gust Speed 30 mph    
Visibility 8 miles    
Events Rain , Thunderstorm    
T = Trace of Precipitation, MM = Missing Value Source: NWS Daily Summary

Daily Weather History Graph

Daily Weather History Graph

Search for Another Location

Airport:

Trip Planner

Search our weather history database for the weather conditions in past years. The results will help you decide how hot, cold, wet, or windy it might be!

Date:

Astronomy

May. 18, 2013 Rise Set
Actual Time 5:42 AM MDT 8:34 PM MDT
Civil Twilight 5:08 AM MDT 9:08 PM MDT
Nautical Twilight 4:25 AM MDT 9:51 PM MDT
Astronomical Twilight 3:35 AM MDT 10:42 PM MDT
Moon 1:27 PM MDT (5/18) 1:51 AM MDT (5/18)
Length of Visible Light 15h 59m
Length of Day
14h 52m
First Quarter, 56% of the Moon is Illuminated
May 18
First Quarter
May 24
Full
May 31
Last Quarter
Jun 8
New
Jun 16
First Quarter

Hourly Weather History & Observations

Time (MDT) Temp. Dew Point Humidity Pressure Visibility Wind Dir Wind Speed Gust Speed Precip Events Conditions
12:53 AM 48.9 °F 48.0 °F 97% 29.80 in 10.0 mi Calm Calm - N/A   Clear
1:53 AM 46.9 °F 46.0 °F 97% 29.81 in 9.0 mi Calm Calm - N/A   Clear
2:53 AM 48.0 °F 46.9 °F 96% 29.79 in 4.0 mi NE 3.5 mph - N/A   Clear
3:02 AM 48.2 °F 46.4 °F 93% 29.86 in 2.0 mi East 5.8 mph - N/A   Partly Cloudy
3:09 AM 48.2 °F 46.4 °F 93% 29.87 in 1.5 mi East 4.6 mph - N/A   Partly Cloudy
3:14 AM 48.2 °F 48.2 °F 100% 29.87 in 3.0 mi East 3.5 mph - N/A   Partly Cloudy
3:53 AM 48.9 °F 48.0 °F 97% 29.85 in 6.0 mi SW 4.6 mph - N/A   Mostly Cloudy
4:53 AM 48.9 °F 48.0 °F 97% 29.83 in 6.0 mi South 4.6 mph - 0.01 in   Overcast
5:09 AM 48.2 °F 48.2 °F 100% 29.87 in 7.0 mi SSE 6.9 mph - N/A   Mostly Cloudy
5:18 AM 50.0 °F 48.2 °F 94% 29.87 in 8.0 mi South 5.8 mph - N/A   Mostly Cloudy
5:53 AM 50.0 °F 48.9 °F 96% 29.82 in 7.0 mi South 6.9 mph - N/A   Overcast
6:53 AM 52.0 °F 50.0 °F 93% 29.81 in 7.0 mi NE 5.8 mph - N/A   Overcast
7:53 AM 52.0 °F 50.0 °F 93% 29.83 in 7.0 mi North 4.6 mph - N/A   Overcast
8:53 AM 53.1 °F 51.1 °F 93% 29.84 in 5.0 mi North 5.8 mph - N/A   Overcast
9:34 AM 53.6 °F 51.8 °F 94% 29.88 in 7.0 mi Calm Calm - N/A Thunderstorm Overcast
9:49 AM 51.8 °F 48.2 °F 88% 29.90 in 8.0 mi WNW 17.3 mph 25.3 mph N/A   Overcast
9:53 AM 50.0 °F 46.0 °F 86% 29.86 in 9.0 mi WNW 15.0 mph 25.3 mph 0.00 in Rain Light Rain
10:00 AM 50.0 °F 46.4 °F 87% 29.90 in 10.0 mi NW 11.5 mph - 0.00 in Rain Light Rain
10:21 AM 53.6 °F 46.4 °F 77% 29.90 in 10.0 mi NNW 9.2 mph - 0.00 in   Overcast
10:53 AM 55.0 °F 48.0 °F 77% 29.85 in 10.0 mi NW 12.7 mph - 0.00 in   Mostly Cloudy
11:53 AM 57.9 °F 48.0 °F 70% 29.84 in 10.0 mi North 15.0 mph 19.6 mph N/A   Mostly Cloudy
1:10 PM 62.6 °F 46.4 °F 55% 29.86 in 10.0 mi NNW 13.8 mph - N/A   Mostly Cloudy
1:53 PM 61.0 °F 46.9 °F 60% 29.81 in 10.0 mi North 10.4 mph 18.4 mph N/A   Overcast
2:53 PM 59.0 °F 45.0 °F 60% 29.81 in 10.0 mi North 16.1 mph - N/A   Mostly Cloudy
3:53 PM 63.0 °F 45.0 °F 52% 29.81 in 10.0 mi North 15.0 mph - N/A   Partly Cloudy
4:53 PM 60.1 °F 44.1 °F 55% 29.83 in 10.0 mi NNW 13.8 mph - N/A   Overcast
5:53 PM 60.1 °F 44.1 °F 55% 29.83 in 10.0 mi NNW 10.4 mph - N/A   Overcast
6:34 PM 60.8 °F 44.6 °F 55% 29.88 in 10.0 mi NW 12.7 mph - N/A   Partly Cloudy
6:53 PM 61.0 °F 44.1 °F 54% 29.81 in 10.0 mi NNW 15.0 mph - N/A   Partly Cloudy
7:53 PM 57.0 °F 46.0 °F 67% 29.85 in 10.0 mi NW 11.5 mph - N/A   Mostly Cloudy
8:53 PM 55.9 °F 46.0 °F 69% 29.84 in 10.0 mi NNW 8.1 mph - N/A   Overcast
10:53 PM 54.0 °F 45.0 °F 72% 29.86 in 10.0 mi NW 8.1 mph - N/A   Overcast
11:53 PM 53.1 °F 45.0 °F 74% 29.84 in 10.0 mi NNW 9.2 mph - N/A   Overcast